Latest Coastal Weather Observations for Cape Grim

IDT60701

Issued at 12:32 pm EDT Tuesday 2 March 2021 (issued every 10 minutes, with the page automatically refreshed every 10 minutes)

About coastal observations | Map of coastal stations | Coastal observations for TAS | Marine services | Other Formats
Station Details ID: 091331 Name: CAPE GRIM Lat: -40.68 Lon: 144.69 Height: 86.0 m
Data from the previous 72 hours. | See also: Recent months at Cape Grim
Date/Time
EDT
Wind Sea
Height
m
Swell Vis
km
Cloud Weather Temp
°C
Press
MSL
hPa
Rain since
9am
mm
Dir  Spd
kts
Gust
kts
Height
m
Period
s
Dir
02/12:30pm SSW 23 31 - - - - - Partly cloudy - 14.1 1017.5 0.0
02/12:04pm SSW 24 34 - - - - - Partly cloudy - 12.6 1017.2 0.0
02/12:00pm SSW 22 31 - - - - - Mostly cloudy - 13.9 1017.2 0.0
02/11:42am SSW 22 33 - - - - - Partly cloudy - 12.7 1017.3 0.0
02/11:30am SW 23 31 - - - - - Partly cloudy - 14.1 1017.2 0.0
02/11:10am SSW 23 33 - - - - - Partly cloudy - 13.1 1017.0 0.0
02/11:00am SSW 25 34 - - - - - Partly cloudy - 12.2 1017.0 0.0
02/10:30am SSW 24 34 - - - - - Partly cloudy - 13.3 1016.7 0.0
02/10:09am SSW 27 37 - - - - - Partly cloudy - 11.9 1016.5 0.0
02/10:00am SW 28 37 - - - - - Partly cloudy - 11.5 1016.6 0.0
02/09:48am SSW 22 32 - - - - - Partly cloudy - 12.3 1016.6 0.0
02/09:30am SW 22 30 - - - - - Partly cloudy - 11.9 1016.6 0.0
02/09:00am SW 25 37 - - - - - Cloudy - 10.6 1016.4 1.2
02/08:32am SW 26 39 - - - - - Partly cloudy - 12.0 1016.1 1.2
02/08:30am SW 25 33 - - - - - Partly cloudy - 12.1 1016.2 1.2
02/08:08am SSW 23 35 - - - - - Partly cloudy - 12.1 1015.9 1.2
02/08:00am SSW 21 30 - - - - - Partly cloudy - 11.9 1016.0 1.2
02/07:30am SSW 24 34 - - - - - Partly cloudy - 12.1 1015.5 1.2
02/07:27am SSW 24 34 - - - - - Partly cloudy - 12.2 1015.4 1.2
02/07:00am SW 29 36 - - - - - Partly cloudy - 11.8 1015.3 1.2
02/06:37am SSW 25 35 - - - - - Partly cloudy - 12.1 1015.1 1.2
02/06:30am SW 25 33 - - - - - Partly cloudy - 12.1 1015.0 1.2
02/06:08am SW 27 38 - - - - - Partly cloudy - 12.3 1014.8 1.2
02/06:00am SSW 25 33 - - - - - Mostly cloudy - 12.3 1014.9 1.2
02/05:36am SW 25 35 - - - - - Partly cloudy - 12.5 1014.7 1.2
02/05:30am SW 25 33 - - - - - Partly cloudy - 12.0 1014.8 1.2
02/05:03am SSW 22 32 - - - - - Partly cloudy - 12.3 1014.5 1.2
02/05:00am SSW 23 32 - - - - - Partly cloudy - 12.2 1014.5 1.2
02/04:30am SW 25 36 - - - - - Partly cloudy - 12.2 1014.4 1.2
02/04:00am SW 25 35 - - - - - Partly cloudy - 12.2 1014.3 1.2
02/03:30am SSW 25 36 - - - - - Partly cloudy - 12.1 1014.1 1.2
02/03:00am SW 28 38 - - - - - Mostly cloudy - 12.1 1014.1 1.2
02/02:30am SW 26 40 - - - - - Partly cloudy - 12.2 1014.2 1.2
02/02:02am SW 28 38 - - - - - Partly cloudy - 12.4 1014.3 1.2
02/02:00am SW 29 37 - - - - - Partly cloudy - 12.3 1014.3 1.2
02/01:35am SW 29 40 - - - - - Partly cloudy - 12.2 1014.1 1.2
02/01:30am SW 30 38 - - - - - Partly cloudy - 12.3 1014.0 1.2
02/01:10am SW 27 38 - - - - - Partly cloudy - 12.2 1014.0 1.2
02/01:00am SW 28 37 - - - - - Partly cloudy - 12.1 1013.8 1.2
02/12:32am SW 29 39 - - - - - Partly cloudy - 12.1 1013.7 1.2
02/12:30am SW 30 39 - - - - - Partly cloudy - 12.4 1013.7 1.2
02/12:00am SW 33 42 - - - - - - - 12.0 1013.6 1.2
 
Date/Time
EDT
Wind Sea
Height
m
Swell Vis
km
Cloud Weather Temp
°C
Press
MSL
hPa
Rain since
9am
mm
Dir  Spd
kts
Gust
kts
Height
m
Period
s
Dir
01/11:30pm SW 29 43 - - - - - Partly cloudy - 12.0 1013.7 1.2
01/11:00pm SW 32 46 - - - - - Partly cloudy - 12.3 1013.4 1.2
01/10:30pm SW 34 46 - - - - - Partly cloudy - 12.4 1013.1 1.2
01/10:00pm SW 36 48 - - - - - Partly cloudy - 12.4 1013.0 1.2
01/09:42pm SW 34 45 - - - - - - - 12.4 1012.9 1.2
01/09:30pm SW 37 45 - - - - - Partly cloudy - 12.5 1012.7 1.2
01/09:01pm SW 34 45 - - - - - Partly cloudy - 12.7 1012.4 1.2
01/09:00pm SW 34 42 - - - - - Mostly clear - 12.9 1012.4 1.2
01/08:32pm SW 37 47 - - - - - Partly cloudy - 12.5 1012.1 1.2
01/08:30pm SW 38 47 - - - - - Partly cloudy - 12.6 1012.0 1.2
01/08:00pm SW 39 50 - - - - - Partly cloudy - 12.1 1011.6 1.2
01/07:30pm SW 37 48 - - - - - Partly cloudy - 12.7 1011.0 1.2
01/07:06pm SW 35 45 - - - - - Partly cloudy - 12.5 1010.8 1.2
01/07:00pm SW 37 45 - - - - - Partly cloudy - 12.8 1010.7 1.2
01/06:30pm SW 35 46 - - - - - Partly cloudy - 11.8 1010.4 1.2
01/06:00pm SW 35 45 - - - - - Cloudy - 13.4 1010.1 0.8
01/05:56pm SW 35 45 - - - - - Partly cloudy - 12.9 1010.2 0.8
01/05:30pm SW 37 45 - - - - - Partly cloudy - 13.6 1010.1 0.8
01/05:08pm SW 38 48 - - - - - Partly cloudy - 14.0 1009.5 0.8
01/05:00pm SW 39 46 - - - - - Partly cloudy - 13.9 1009.5 0.8
01/04:30pm SW 31 45 - - - - - Partly cloudy - 14.5 1009.2 0.8
01/04:00pm SW 33 48 - - - - - Partly cloudy - 14.1 1009.2 0.8
01/03:30pm SW 31 42 - - - - - Partly cloudy - 15.0 1009.1 0.8
01/03:00pm SW 29 43 - - - - - Cloudy - 14.6 1009.1 0.8
01/02:30pm SW 27 39 - - - - - Partly cloudy - 14.5 1009.1 0.8
01/02:05pm SW 28 38 - - - - - Partly cloudy - 14.3 1009.1 0.8
01/02:00pm SW 29 39 - - - - - Partly cloudy - 13.8 1009.0 0.8
01/01:49pm SW 32 42 - - - - - Partly cloudy - 12.9 1009.0 0.8
01/01:30pm SW 36 46 - - - - - Partly cloudy - 13.3 1008.8 0.8
01/01:21pm WSW 21 42 - - - - - Partly cloudy - 13.8 1008.5 0.8
01/01:18pm WSW 16 41 - - - - - Partly cloudy - 14.9 1008.2 0.0
01/01:08pm W 17 30 - - - - - Partly cloudy - 16.3 1008.7 0.0
01/01:00pm W 19 27 - - - - - Partly cloudy - 16.0 1008.7 0.0
01/12:30pm W 19 29 - - - - - Partly cloudy - 15.7 1008.9 0.0
01/12:00pm W 18 29 - - - - - Cloudy - 14.7 1009.1 0.0
01/11:58am W 18 29 - - - - - Partly cloudy - 15.6 1009.0 0.0
01/11:30am W 15 22 - - - - - Partly cloudy - 16.0 1009.1 0.0
01/11:00am W 14 25 - - - - - Partly cloudy - 16.5 1009.4 0.0
01/10:30am WSW 11 19 - - - - - Partly cloudy - 15.8 1009.3 0.0
01/10:24am WSW 11 18 - - - - - Partly cloudy - 15.9 1009.3 0.0
01/10:09am WSW 11 20 - - - - - Partly cloudy - 15.5 1009.3 0.0
01/10:08am WSW 12 18 - - - - - Partly cloudy - 15.6 1009.3 0.0
01/10:00am WSW 10 18 - - - - - Partly cloudy - 15.8 1009.3 0.0
01/09:46am WSW 13 21 - - - - - Partly cloudy - 15.8 1009.2 0.0
01/09:30am SW 14 19 - - - - - Partly cloudy - 15.9 1009.1 0.0
01/09:00am SW 14 19 - - - - - Partly cloudy - 15.8 1009.0 1.4
01/08:30am SW 17 20 - - - - - Partly cloudy - 15.6 1008.8 1.4
01/08:00am SW 18 21 - - - - - Partly cloudy - 15.2 1008.6 1.4
01/07:51am SW 17 21 - - - - - Partly cloudy - 15.4 1008.6 1.4
01/07:32am SW 19 23 - - - - - Partly cloudy - 15.3 1008.5 1.4
01/07:30am SW 19 23 - - - - - Partly cloudy - 15.4 1008.5 1.4
01/07:24am SW 19 23 - - - - - Partly cloudy - 15.4 1008.4 1.4
01/07:13am SW 19 23 - - - - - Partly cloudy - 15.4 1008.5 1.4
01/07:12am SW 19 23 - - - - - Partly cloudy - 15.5 1008.5 1.4
01/07:00am SW 19 23 - - - - - Partly cloudy - 15.6 1008.4 1.4
01/06:53am SW 17 22 - - - - - Partly cloudy - 15.5 1008.4 1.4
01/06:31am WSW 8 14 - - - - - Partly cloudy - 15.7 1008.2 1.4
01/06:30am SW 8 14 - - - - - Partly cloudy - 15.7 1008.3 1.4
01/06:01am WSW 6 10 - - - - - Partly cloudy - 15.5 1008.1 1.4
01/06:00am WSW 6 10 - - - - - Mostly cloudy - 15.5 1008.1 1.4
01/05:30am W 6 11 - - - - - Partly cloudy - 15.4 1008.2 1.4
01/05:00am W 8 11 - - - - - Partly cloudy - 15.5 1008.2 1.4
01/04:30am NW 5 8 - - - - - Partly cloudy - 15.5 1008.3 1.4
01/04:00am NNW 4 5 - - - - - - - 15.1 1008.2 1.4
01/03:32am NNW 6 8 - - - - - Partly cloudy - 15.4 1008.6 1.4
01/03:30am NNW 6 8 - - - - - Partly cloudy - 15.4 1008.7 1.4
01/03:12am NNW 5 6 - - - - - Partly cloudy - 15.7 1008.7 1.4
01/03:00am NNW 5 6 - - - - - Cloudy - 15.7 1008.8 1.4
01/02:30am NNW 1 4 - - - - - Partly cloudy - 15.3 1008.9 1.4
01/02:00am CALM 0 0 - - - - - Partly cloudy - 15.6 1009.2 1.4
01/01:30am NNW 4 5 - - - - - Partly cloudy - 15.6 1009.6 1.4
01/01:00am NNW 5 6 - - - - - Partly cloudy - 15.8 1009.9 1.4
01/12:30am NNW 3 5 - - - - - Partly cloudy - 15.8 1009.9 1.4
01/12:00am NNW 4 5 - - - - - Cloudy - 15.7 1010.0 1.4
 
Date/Time
EDT
Wind Sea
Height
m
Swell Vis
km
Cloud Weather Temp
°C
Press
MSL
hPa
Rain since
9am
mm
Dir  Spd
kts
Gust
kts
Height
m
Period
s
Dir
28/11:30pm NNW 5 6 - - - - - Partly cloudy - 15.9 1010.3 1.4
28/11:11pm NNW 4 6 - - - - - Partly cloudy - 15.7 1010.4 1.4
28/11:00pm NNW 3 5 - - - - - Partly cloudy - 15.7 1010.5 1.4
28/10:30pm NNW 1 4 - - - - - Partly cloudy - 15.6 1010.4 1.4
28/10:15pm CALM 0 0 - - - - - Partly cloudy - 15.6 1010.5 1.4
28/10:00pm CALM 0 3 - - - - - Partly cloudy - 15.7 1010.7 1.4
28/09:30pm CALM 0 0 - - - - - - - 15.5 1010.7 1.4
28/09:00pm NNW 2 3 - - - - - Mostly cloudy - 15.7 1010.5 1.4
28/08:30pm NNW 4 5 - - - - - Partly cloudy - 15.7 1010.5 1.4
28/08:28pm NNW 4 5 - - - - - Partly cloudy - 15.7 1010.5 1.4
28/08:16pm NNW 5 6 - - - - - Partly cloudy - 15.9 1010.5 1.4
28/08:00pm NNW 6 7 - - - - - Partly cloudy - 16.0 1010.4 1.4
28/07:30pm N 6 8 - - - - - Partly cloudy - 16.2 1010.4 1.4
28/07:00pm N 9 11 - - - - - - - 16.5 1010.3 1.4
28/06:30pm N 11 15 - - - - - Partly cloudy - 16.9 1010.3 1.4
28/06:00pm N 10 13 - - - - - Mostly clear - 17.4 1010.2 1.4
28/05:30pm N 9 12 - - - - - Partly cloudy - 17.9 1010.5 1.4
28/05:00pm N 10 14 - - - - - Partly cloudy - 17.6 1010.6 1.4
28/04:30pm N 8 11 - - - - - - - 18.9 1010.6 1.4
28/04:00pm NNW 10 13 - - - - - - - 19.2 1011.0 1.4
28/03:30pm NNW 10 12 - - - - - Partly cloudy - 19.5 1011.1 1.4
28/03:22pm NNW 9 12 - - - - - Partly cloudy - 19.7 1011.2 1.4
28/03:00pm N 9 13 - - - - - Mostly cloudy - 18.8 1011.4 1.4
28/02:30pm NNE 9 14 - - - - - Partly cloudy - 18.8 1011.7 1.4
28/02:00pm NE 12 15 - - - - - Partly cloudy - 19.4 1011.9 1.4
28/01:30pm NNE 10 13 - - - - - Partly cloudy - 17.7 1012.2 1.4
28/01:12pm NNE 10 15 - - - - - Partly cloudy - 17.3 1012.4 1.4
28/01:00pm NE 11 15 - - - - - Partly cloudy - 17.7 1012.5 1.4
28/12:55pm NE 11 14 - - - - - Partly cloudy - 17.2 1012.5 1.4
28/12:30pm NNE 8 11 - - - - - Partly cloudy - 17.1 1012.9 1.4
28/12:21pm N 5 9 - - - - - Partly cloudy - 16.8 1013.0 1.4
28/12:00pm N 5 9 - - - - - Cloudy Recent precip. 16.8 1013.3 1.4
28/11:57am NNW 6 9 - - - - - Partly cloudy - 16.7 1013.4 1.4
28/11:41am NE 7 10 - - - - - Partly cloudy - 16.6 1013.4 1.2
28/11:30am NE 9 12 - - - - - Partly cloudy - 16.8 1013.4 0.4
28/11:00am E 9 12 - - - - - Partly cloudy - 16.7 1013.5 0.4
28/10:30am E 8 9 - - - - - Partly cloudy - 16.4 1013.5 0.4
28/10:11am E 7 9 - - - - - Partly cloudy - 16.0 1013.7 0.4
28/10:00am E 6 8 - - - - - Partly cloudy - 15.7 1013.7 0.4
28/09:41am E 7 9 - - - - - Partly cloudy - 15.4 1013.5 0.4
28/09:40am E 7 9 - - - - - Partly cloudy - 15.3 1013.5 0.4
28/09:30am E 7 10 - - - - - Partly cloudy - 15.0 1013.6 0.4
28/09:29am E 7 10 - - - - - Partly cloudy - 14.9 1013.6 0.4
28/09:00am ESE 9 11 - - - - - Cloudy Recent precip. 14.8 1013.3 0.2
28/08:30am ESE 9 11 - - - - - Partly cloudy - 14.2 1013.2 0.0
28/08:00am ESE 10 11 - - - - - Partly cloudy - 14.4 1013.1 0.0
28/07:30am ESE 10 12 - - - - - Partly cloudy - 14.2 1012.9 0.0
28/07:00am ESE 10 12 - - - - - Partly cloudy - 14.1 1012.8 0.0
28/06:30am ESE 10 11 - - - - - Partly cloudy - 13.9 1012.6 0.0
28/06:00am ESE 9 11 - - - - - Mostly cloudy - 14.1 1012.6 0.0
28/05:30am ESE 10 11 - - - - - Partly cloudy - 13.7 1012.5 0.0
28/05:00am SE 10 11 - - - - - Partly cloudy - 13.9 1012.5 0.0
28/04:30am SE 8 10 - - - - - - - 14.1 1012.7 0.0
28/04:00am ESE 9 10 - - - - - - - 14.1 1012.8 0.0
28/03:30am E 7 7 - - - - - - - 14.2 1012.9 0.0
28/03:00am ENE 7 8 - - - - - Cloudy - 14.8 1013.0 0.0
28/02:30am ENE 7 8 - - - - - - - 14.5 1013.2 0.0
28/02:00am E 6 7 - - - - - - - 14.7 1013.5 0.0
28/01:30am E 6 7 - - - - - - - 14.6 1013.7 0.0
28/01:00am E 7 8 - - - - - Partly cloudy - 15.1 1013.9 0.0
28/12:30am E 2 3 - - - - - Cloudy - 15.2 1014.0 0.0
28/12:00am E 3 5 - - - - - Cloudy - 14.6 1013.8 0.0
 
Date/Time
EDT
Wind Sea
Height
m
Swell Vis
km
Cloud Weather Temp
°C
Press
MSL
hPa
Rain since
9am
mm
Dir  Spd
kts
Gust
kts
Height
m
Period
s
Dir
27/11:30pm E 6 6 - - - - - - - 14.5 1013.8 0.0
27/11:00pm E 6 6 - - - - - - - 14.7 1014.0 0.0
27/10:30pm E 6 7 - - - - - - - 14.9 1013.9 0.0
27/10:00pm E 5 6 - - - - - - - 15.0 1014.1 0.0
27/09:30pm E 5 6 - - - - - - - 15.1 1014.0 0.0
27/09:00pm E 4 4 - - - - - Cloudy - 15.3 1014.0 0.0
27/08:30pm E 5 5 - - - - - Partly cloudy - 15.4 1013.7 0.0
27/08:00pm E 6 7 - - - - - - - 15.6 1013.6 0.0
27/07:30pm E 6 8 - - - - - - - 16.0 1013.4 0.0
27/07:00pm ENE 7 8 - - - - - Cloudy - 16.5 1013.4 0.0
27/06:30pm ENE 8 10 - - - - - Partly cloudy - 16.9 1013.4 0.0
27/06:00pm NE 9 11 - - - - - Mostly cloudy - 17.0 1013.6 0.0
27/05:30pm ENE 10 13 - - - - - Partly cloudy - 17.5 1013.5 0.0
27/05:00pm ENE 9 11 - - - - - Partly cloudy - 18.3 1013.5 0.0
27/04:30pm E 10 14 - - - - - - - 18.6 1013.4 0.0
27/04:00pm ENE 11 14 - - - - - - - 18.5 1013.5 0.0
27/03:30pm ENE 12 14 - - - - - Partly cloudy - 18.4 1013.6 0.0
27/03:00pm ENE 11 16 - - - - - - - 18.8 1013.8 0.0
27/02:30pm ENE 11 15 - - - - - - - 18.9 1014.0 0.0
27/02:00pm ENE 12 15 - - - - - - - 18.7 1014.1 0.0
27/01:30pm NE 12 17 - - - - - Partly cloudy - 19.1 1014.2 0.0
27/01:00pm ENE 13 18 - - - - - - - 18.4 1014.2 0.0

Other formats

Comma delimited format used in spreadsheet applications
http://www.bom.gov.au/fwo/IDT60701/IDT60701.95954.axf

JavaScript Object Notation format (JSON) in row-major order
http://www.bom.gov.au/fwo/IDT60701/IDT60701.95954.json

Data quality

Most of these data are generated automatically and are frequently updated. Quality checks on data are not normally performed. It is possible for incorrect values to appear. Refer to information at About Latest Weather Observations and please check the disclaimer before using these data.